Location: Ç?ral? Körfezi
(36.3984°N, 30.4829°E)
Time: 02:57:16
(UTC+00:00)

CENTAUR R/B - Pass Details

Date: 04 August 2024
Orbit: 663 x 1521 km, 63.4° (Epoch: 10 September)

Event Time Altitude Azimuth Distance (km) Brightness Sun altitude
Rises 17:49:54 0° 333° (NNW) 4,205 6.8 -9.8°
Reaches altitude 10° 17:52:55 10° 343° (NNW) 3,350 6.0 -10.3°
Maximum altitude 18:00:29 35° 47° (NE) 2,168 4.2 -11.6°
Enters shadow 18:07:34 14° 106° (ESE) 3,360 4.7 -12.8°
